This demonstration page uses our WeatherBlox Daily Observations layout. Learn more.

Left ArrowRight Arrow

38.83388, -104.82136

Hourly Observations for August 28, 2022

Temp ( °F °C ) Dew Point ( °F °C ) Humidity (%) Winds ( mph kmh ) Pressure ( in mb ) Visibility ( mi km ) Precip ( " mm )
12:56 am 00:56 Clear 70 20.9 36 2.2 29 29 WSW 3 6 29.36 994 10 16 0.00 0.00
1:56 am 01:56 Clear 69 20.7 36 2 29 29 W 9 15 29.33 993 10 16 0.00 0.00
2:56 am 02:56 Clear 71 21.4 32 0 24 24 W 7 11 29.36 994 10 16 0.00 0.00
3:56 am 03:56 Clear 67 19.3 33 0.3 28 28 W 7 11 29.30 992 10 16 0.00 0.00
4:56 am 04:56 Clear 67 19.3 31 -0.7 26 26 WNW 9 15 29.29 992 10 16 0.00 0.00
5:56 am 05:56 Clear 69 20.5 32 -0.2 25 25 NNW 7 11 29.33 993 10 16 0.00 0.00
6:56 am 06:56 Sunny 69 20.7 33 0.5 26 26 N 8 13 29.36 994 10 16 0.00 0.00
7:56 am 07:56 Sunny 73 22.7 36 2.2 26 26 N 7 11 29.54 1000 10 16 0.00 0.00
8:56 am 08:56 Sunny 75 24.1 41 4.9 29 29 SE 7 11 29.64 1004 10 16 0.00 0.00
9:56 am 09:56 Sunny 76 24.5 38 3.2 25 25 SSE 10 17 29.62 1003 10 16 0.00 0.00
10:56 am 10:56 Sunny 80 26.7 39 3.8 23 23 ENE 3 6 29.70 1006 10 16 0.00 0.00
11:56 am 11:56 Mostly Cloudy 78 25.8 35 1.8 21 21 N 5 7 29.65 1004 10 16 0.00 0.00
12:43 pm 12:43 Cloudy with Light Rain 81 27 36 2 20 20 N 3 6 29.79 1009 10 16 0.00 0.00
12:56 pm 12:56 Mostly Cloudy 82 28 36 2.2 19 19 NNE 5 7 29.82 1010 10 16 0.01 0.13
1:56 pm 13:56 Partly Cloudy 82 27.9 38 3.5 21 21 SE 3 6 29.78 1008 10 16 0.00 0.00
2:56 pm 14:56 Cloudy with Nearby Thunderstorms 75 23.9 39 3.8 27 27 NW 17 28 29.49 999 10 16 0.00 0.00
3:10 pm 15:10 Cloudy with Thunderstorms 73 23 39 4 29 29 NNW 17 28 29.30 992 10 16 0.00 0.00
3:25 pm 15:25 Cloudy 73 23 39 4 29 29 NW 18 30 29.23 990 10 16 0.00 0.00
3:42 pm 15:42 Cloudy with Light Rain 73 23 41 5 31 31 NW 22 35 29.21 989 10 16 0.00 0.00
3:56 pm 15:56 Cloudy with Light Rain 68 20 46 7.7 45 45 NW 28 44 29.08 985 10 16 0.01 0.13
4:53 pm 16:53 Partly Cloudy 70 21 41 5 35 35 SSW 8 13 29.13 987 10 16 0.00 0.00
4:56 pm 16:56 Partly Cloudy 70 21.2 40 4.7 34 34 SW 7 11 29.15 987 10 16 0.01 0.13
5:56 pm 17:56 Cloudy 71 21.9 39 4 31 31 SW 8 13 29.23 990 10 16 0.00 0.00
6:56 pm 18:56 Cloudy 71 21.7 39 3.8 31 31 W 13 20 29.24 990 10 16 0.00 0.00
7:01 pm 19:01 Cloudy 72 22 39 4 31 31 WNW 14 22 29.24 990 10 16 0.00 0.00
7:56 pm 19:56 Mostly Cloudy 71 21.5 38 3.6 31 31 W 13 20 29.23 990 10 16 0.00 0.00
8:56 pm 20:56 Partly Cloudy 68 20 40 4.5 36 36 Calm 29.19 988 10 16 0.00 0.00
9:56 pm 21:56 Mostly Cloudy 69 20.8 37 3 31 31 Calm 29.20 989 10 16 0.00 0.00
10:56 pm 22:56 Mostly Cloudy 69 20.8 36 2.1 29 29 SSW 5 7 29.18 988 10 16 0.00 0.00
11:56 pm 23:56 Clear 69 20.3 35 1.7 29 29 SSW 7 11 29.20 989 10 16 0.00 0.00

Powered by AerisWeather